Location: Unspecified
(58.7730°N, 5.8460°E)
Time: 16:28:11
(UTC+02:00)

Okean 3 - Visible Passes

Search period start: 29 June 2016 00:00
Search period end: 09 July 2016 00:00
Orbit: 579 x 603 km, 82.5° (Epoch: 29 June)

Date Brightness Start Highest point End Pass type
(mag) Time Alt. Az. Time Alt. Az. Time Alt. Az.
29 Jun 5.6 00:16:59 10° N 00:20:13 20° ENE 00:23:27 10° ESE visible
29 Jun 3.5 01:53:45 10° NNW 01:58:05 82° W 02:02:25 10° S visible
30 Jun 5.2 00:25:18 10° N 00:28:55 25° ENE 00:32:33 10° ESE visible
30 Jun 3.7 02:02:18 10° NNW 02:06:34 60° W 02:10:49 10° S visible
01 Jul 4.8 00:33:40 10° N 00:37:36 32° ENE 00:41:30 10° SE visible
01 Jul 4.2 02:10:54 10° NNW 02:15:02 44° W 02:19:08 10° SSW visible
02 Jul 4.4 00:42:05 10° N 00:46:13 42° ENE 00:50:21 10° SE visible
02 Jul 4.6 02:19:33 10° NNW 02:23:27 33° W 02:27:19 10° SSW visible
03 Jul 4.0 00:50:32 10° N 00:54:49 56° ENE 00:59:04 10° SSE visible
03 Jul 5.0 02:28:16 10° NNW 02:31:50 25° W 02:35:23 10° SW visible
04 Jul 3.6 00:59:01 10° N 01:03:23 75° ENE 01:07:42 10° SSE visible
04 Jul 5.4 02:37:05 10° NW 02:40:11 19° W 02:43:16 10° SW visible
05 Jul 3.6 01:07:32 10° NNW 01:11:54 82° WSW 01:16:05 11° S visible
05 Jul 5.7 02:46:04 10° NW 02:48:30 15° W 02:50:55 10° WSW visible
06 Jul 3.8 01:16:06 10° NNW 01:20:23 60° W 01:24:29 11° S visible
06 Jul 5.9 02:55:30 10° WNW 02:56:46 11° WNW 02:58:03 10° W visible
07 Jul 4.2 01:24:42 10° NNW 01:28:50 44° W 01:32:53 10° SSW visible
07 Jul 4.3 23:55:52 10° N 00:00:01 42° ENE 00:04:09 10° SE visible
08 Jul 4.7 01:33:20 10° NNW 01:37:15 33° W 01:41:08 10° SSW visible
